Theta_e
360 361 362 361 362 364 360 367 368 368 373 370 372 367 367 365 367 369 367 364 362 360 357 354 352 352 341 336 334 335 334 334 329 332 344 349 350 345 335 340 336 339 336
359 362 359 361 363 361 363 361 365 368 374 374 374 370 369 368 369 366 361 359 359 358 356 354 351 346 345 345 335 349 340 343 330 341 346 342 343 343 342 342 336 335 338
357 356 357 358 358 359 361 365 365 371 372 367 372 370 370 368 367 367 365 362 358 358 358 354 351 349 344 339 339 336 335 334 336 333 335 340 338 340 338 341 338 339 334
356 357 361 358 360 358 362 368 365 372 373 373 373 372 371 370 368 364 363 363 362 359 359 356 353 349 345 342 337 342 341 336 337 331 332 335 334 341 336 331 330 333 330
359 357 359 364 367 372 372 372 370 372 372 376 375 373 372 367 362 366 364 364 364 361 359 357 353 349 343 341 334 342 346 337 331 329 328 331 330 330 331 330 328 328 333
353 354 358 368 369 369 373 372 376 373 374 376 374 373 370 362 348 346 360 362 363 362 358 357 355 344 338 334 336 333 333 345 341 330 328 330 339 336 332 329 327 324 321
341 340 347 353 361 372 371 374 373 372 372 372 373 373 372 372 344 341 346 359 361 361 359 355 348 342 338 336 331 329 331 333 331 333 339 341 341 341 340 338 338 330 324
340 340 339 341 354 368 367 370 370 370 371 372 371 372 372 371 343 336 343 359 364 363 361 350 345 337 336 333 331 332 332 334 335 332 338 342 342 344 344 339 338 337 332
356 359 359 360 365 365 368 367 364 362 364 369 370 372 371 371 338 334 341 359 358 346 342 340 339 337 332 330 331 330 330 329 328 328 328 330 331 334 334 329 324 321 320
351 355 357 356 355 351 353 359 369 371 369 364 366 370 359 370 332 328 340 352 342 339 342 338 333 333 326 325 332 331 328 328 330 327 326 326 331 329 326 335 327 320 319
352 353 355 355 356 354 357 362 363 365 370 371 370 370 369 365 353 325 331 351 341 340 335 334 334 326 321 320 323 333 330 330 331 329 326 328 327 326 325 329 337 326 324
352 353 355 355 351 347 356 362 362 362 364 367 364 363 363 364 336 323 325 334 338 340 336 336 335 320 317 317 321 324 322 326 326 322 321 321 321 322 322 328 338 338 335
347 348 352 354 352 355 355 355 346 352 348 351 355 353 346 347 347 324 321 323 325 340 339 331 325 316 314 317 320 319 320 323 322 320 320 319 322 325 329 332 335 340 339
341 341 344 346 350 356 344 342 340 338 342 346 349 345 345 346 346 335 326 325 323 327 325 326 324 321 321 320 317 319 320 322 322 320 321 325 328 326 328 329 326 327 326
334 333 332 328 339 339 344 338 338 345 337 342 346 351 349 347 348 331 328 331 333 328 324 320 317 318 318 316 318 317 319 320 321 322 321 323 324 325 325 327 327 325 323
332 328 325 326 325 325 325 331 322 323 318 316 311 323 346 323 313 311 310 311 312 311 322 319 318 321 321 317 315 313 317 318 319 319 323 324 323 325 323 325 326 322 321
334 331 326 322 323 323 324 326 325 325 314 309 307 307 306 311 306 307 306 304 306 313 326 324 324 323 320 320 317 314 312 316 319 318 321 323 325 323 319 319 321 323 323
331 318 326 324 324 324 325 329 329 331 329 333 314 316 305 302 302 303 303 305 310 317 325 327 325 322 321 319 317 315 315 319 321 322 322 322 322 318 319 320 321 323 324
326 324 325 325 325 323 326 326 328 332 332 332 334 321 316 302 299 300 301 321 318 317 323 323 322 323 322 323 319 319 319 318 320 322 319 317 318 319 321 322 323 315 318
323 321 319 323 323 324 325 325 326 329 329 331 331 334 337 318 320 314 310 318 321 319 321 323 323 321 320 320 318 319 321 321 323 319 317 316 320 321 320 322 322 322 324
321 322 322 321 321 322 323 324 327 329 326 333 330 330 318 332 330 320 315 317 322 322 321 323 324 323 321 321 320 320 320 321 319 318 318 319 320 318 321 323 324 323 320
322 321 321 322 323 322 323 324 325 325 326 328 333 330 307 333 333 329 321 319 323 324 324 324 324 323 323 322 321 321 319 317 316 316 317 320 323 320 323 324 322 319 322
323 322 321 321 322 321 323 323 324 324 326 327 329 332 329 333 333 330 328 324 323 324 325 325 324 323 323 321 322 321 318 317 318 319 317 322 324 323 323 322 319 319 321
323 321 320 322 324 325 325 325 324 317 323 325 326 330 331 333 334 334 332 328 328 326 325 324 324 323 322 321 322 323 321 321 322 321 323 324 324 322 323 323 320 322 320
321 320 321 323 325 325 325 325 326 326 325 325 327 329 331 334 332 331 334 330 325 324 324 325 324 323 322 322 322 324 317 305 319 315 327 328 327 323 323 323 321 319 319
322 322 322 326 326 325 324 324 324 327 326 326 326 331 335 335 333 333 329 327 325 324 323 322 322 323 323 324 324 315 298 294 307 295 323 327 324 323 320 319 322 320 322
Wind_Speed
17 15 15 15 16 15 14 12 11 10 9 8 10 11 11 11 11 10 9 6 10 10 8 7 8 5 5 5 5 6 5 5 7 3 8 8 8 4 7 5 9 9 9
15 13 15 14 14 16 14 15 15 13 11 10 10 12 11 12 11 12 12 11 11 10 11 9 9 7 6 6 5 5 5 4 6 6 9 7 6 8 7 5 7 8 12
13 14 14 15 15 16 16 14 15 13 12 14 13 13 13 13 12 12 12 12 12 12 11 10 9 8 7 6 6 5 6 6 6 8 6 6 8 8 7 7 4 4 3
9 10 11 12 13 14 14 13 14 14 14 14 15 15 15 14 14 14 15 13 13 11 11 11 10 9 8 7 7 5 6 5 6 7 7 6 8 9 8 8 7 5 7
8 4 6 6 9 9 10 11 13 13 14 14 14 14 15 15 14 16 16 15 14 13 11 11 12 12 11 7 6 6 5 6 8 8 9 6 8 8 10 8 8 9 6
8 8 11 9 8 10 10 11 11 13 13 14 15 16 16 15 17 17 16 15 16 14 13 11 10 12 7 3 3 6 6 6 9 9 8 8 8 8 8 9 8 6 6
10 7 7 12 15 10 11 11 12 13 13 15 16 16 17 17 13 18 18 16 14 14 13 10 10 6 11 10 10 7 5 4 4 5 11 7 8 8 8 7 5 4 5
6 4 10 4 25 12 9 11 12 12 13 13 14 16 16 15 14 16 20 20 13 13 12 13 12 11 11 11 13 13 13 11 9 9 9 9 5 8 5 6 3 4 5
6 9 10 9 5 5 7 9 11 8 11 12 11 14 16 15 15 19 17 17 11 14 13 14 15 13 17 23 14 11 12 10 10 10 5 2 5 11 9 8 8 9 8
6 6 3 2 3 3 3 4 6 7 11 12 13 13 14 15 13 16 18 10 12 9 13 16 27 22 12 17 12 13 12 12 11 10 6 5 8 7 5 9 9 10 10
5 5 5 4 4 4 4 4 5 7 7 9 11 11 12 14 12 19 20 15 12 11 10 9 8 12 18 20 16 13 12 9 9 10 9 6 7 9 9 8 7 9 7
5 5 5 5 5 5 5 6 6 6 8 9 10 10 8 9 8 14 18 15 14 11 12 11 11 15 15 15 13 7 11 12 8 8 9 8 9 9 10 10 7 5 4
7 8 7 6 6 6 6 7 8 5 8 7 7 7 4 4 6 14 18 13 10 12 8 8 10 18 14 13 15 10 8 8 9 9 9 8 9 9 10 9 8 6 5
8 7 7 7 8 8 8 9 7 7 5 7 6 5 6 8 9 6 8 9 11 5 5 9 11 13 13 8 5 4 4 5 7 7 7 7 7 9 8 9 9 9 8
6 6 7 9 9 9 8 10 9 9 7 7 8 8 7 6 6 15 13 9 10 10 9 8 8 9 10 9 10 9 7 6 8 7 7 6 6 8 9 9 9 9 9
7 8 6 6 9 10 11 10 14 14 7 7 8 7 9 3 6 14 12 14 12 19 9 10 11 14 15 15 13 12 9 11 8 7 7 8 9 9 7 7 5 6 8
6 6 7 7 9 10 11 12 12 9 11 14 13 11 9 10 9 13 14 12 17 20 12 12 13 14 13 14 13 12 10 7 7 7 9 9 7 8 6 6 9 11 11
7 8 8 9 9 10 11 11 12 13 11 9 11 9 11 10 13 15 15 11 4 12 11 12 12 13 13 12 13 13 13 12 13 15 14 9 7 7 9 11 11 12 11
8 8 9 9 11 12 12 13 13 13 10 9 6 5 7 4 7 11 14 8 10 11 11 11 11 12 13 12 13 13 15 15 15 13 10 10 9 8 13 13 13 9 7
8 5 7 9 10 12 12 14 12 9 11 10 8 7 5 4 3 5 8 8 8 9 11 11 11 12 12 13 13 14 14 13 13 11 9 5 6 15 14 12 8 10 11
6 6 7 9 11 12 11 13 14 11 8 11 11 7 8 8 7 7 8 10 10 10 11 11 10 10 12 12 13 14 13 11 11 10 9 10 16 14 9 9 11 11 7
7 8 9 10 10 11 12 13 15 9 7 9 11 4 16 8 8 7 8 9 9 9 9 11 9 10 8 10 10 13 14 13 13 11 11 15 17 12 12 13 12 9 6
9 11 12 12 12 11 12 14 14 14 15 11 9 7 6 8 8 9 9 9 9 9 9 10 10 9 9 8 9 12 13 13 14 14 17 16 16 13 13 12 10 10 11
12 14 14 13 12 12 14 14 13 14 15 15 10 7 11 7 9 10 8 9 10 10 10 10 11 13 12 12 11 11 11 13 14 18 22 12 13 13 11 11 9 14 10
15 15 15 13 12 11 12 12 15 15 14 12 9 9 6 8 7 7 8 8 8 8 10 9 10 14 17 19 18 18 17 16 12 12 8 18 17 15 14 11 12 8 8
15 16 15 12 13 12 11 10 11 14 15 13 11 4 7 9 9 8 8 9 9 10 11 9 12 16 17 16 18 17 12 14 12 9 15 12 9 9 6 7 15 9 13
Wind_Direction
206 203 207 206 203 205 207 201 209 223 194 219 187 202 204 208 205 197 238 193 197 210 218 206 213 229 249 226 220 236 232 240 254 290 104 134 154 153 145 191 161 183 162
206 208 201 210 209 201 211 202 202 212 201 203 195 206 207 208 208 208 213 228 200 212 217 220 217 210 215 254 249 234 234 233 248 263 143 147 185 186 162 204 220 222 158
202 200 215 203 208 211 203 215 200 203 204 206 205 207 210 210 209 210 217 223 229 214 221 211 220 216 215 246 226 240 217 244 226 264 211 173 164 185 180 224 215 284 127
225 208 205 221 213 221 210 206 218 199 206 206 205 207 210 211 207 213 212 216 220 209 216 211 214 217 223 218 246 238 283 237 237 239 249 176 193 174 196 198 202 224 209
150 208 235 252 241 221 236 211 209 218 205 212 212 215 216 212 211 206 212 204 213 215 203 206 206 205 192 206 223 206 250 229 242 221 248 197 191 182 204 211 208 189 204
32 62 1 312 254 257 237 232 224 214 218 211 216 216 216 222 216 206 205 205 204 208 208 201 201 156 145 128 34 88 18 245 261 281 229 222 200 200 193 223 214 210 226
144 259 54 341 286 238 241 243 232 231 228 222 222 221 221 222 217 197 197 217 213 209 203 187 175 174 161 183 182 158 214 245 183 295 294 271 183 201 218 202 212 220 231
152 91 69 309 262 249 234 237 236 235 230 229 230 227 229 227 203 191 193 211 216 223 183 161 150 152 181 198 197 188 184 197 213 237 252 275 262 166 208 193 204 210 243
170 168 187 204 256 258 238 211 223 241 245 239 237 234 232 233 203 188 184 210 201 166 155 157 162 181 206 205 198 187 175 208 169 135 98 89 93 137 169 194 193 195 200
145 163 174 303 281 276 320 307 271 236 233 235 241 239 231 236 186 178 183 195 180 182 179 184 191 183 188 216 215 183 190 190 206 166 159 127 142 139 181 229 189 201 204
173 182 193 213 251 263 298 293 284 287 266 262 250 242 243 236 196 187 184 184 190 191 195 199 202 216 196 197 214 191 185 178 195 164 185 175 185 189 207 218 235 230 232
227 227 229 246 278 305 309 306 308 295 270 262 244 253 247 252 197 191 193 189 191 193 202 201 215 188 186 189 199 190 161 157 179 165 196 189 191 193 202 199 228 239 330
242 245 245 251 253 263 266 281 284 233 277 272 262 267 222 214 194 182 200 210 177 200 202 187 186 182 184 181 196 178 159 178 179 172 204 197 195 203 191 185 197 214 259
225 234 243 246 251 260 269 267 256 291 282 282 255 226 228 225 223 176 194 209 226 216 114 144 163 178 184 159 155 144 174 201 174 170 214 215 190 190 199 179 196 194 217
221 236 249 253 248 254 243 270 272 293 274 256 248 250 238 290 251 171 170 190 204 203 143 137 151 169 173 172 180 187 196 190 197 197 205 232 210 197 199 203 200 204 212
228 239 272 301 276 276 282 274 219 226 175 225 270 277 272 160 157 166 178 177 171 145 162 169 183 183 189 183 185 178 186 166 184 202 229 217 219 208 198 191 195 217 220
250 270 274 297 287 289 282 283 279 230 206 187 209 229 226 279 186 182 188 168 157 158 193 191 197 191 187 183 186 189 186 175 189 215 235 228 208 187 159 187 200 213 223
267 267 264 276 287 291 292 289 281 277 264 243 197 209 204 205 198 194 188 143 148 198 206 205 198 186 189 185 184 184 185 187 200 209 212 204 196 182 195 215 215 209 221
259 270 296 296 292 304 299 285 279 276 266 263 271 239 163 186 213 200 172 186 189 198 208 205 201 192 191 189 183 190 188 194 204 210 197 196 198 203 221 211 218 235 214
267 271 273 283 281 279 277 272 276 293 286 246 247 245 261 138 206 187 194 208 199 199 203 210 203 199 193 193 186 196 192 191 187 184 179 161 219 232 224 221 217 214 221
277 286 282 280 273 275 281 273 274 262 269 253 247 237 173 200 234 209 201 206 210 204 202 211 210 206 200 197 193 195 191 177 181 169 171 192 224 228 208 211 219 223 198
280 283 282 278 278 281 281 281 278 277 263 295 271 237 161 196 233 217 206 209 211 206 199 202 210 208 204 198 179 178 176 179 171 176 185 212 237 210 213 213 220 221 207
278 279 276 274 271 271 264 267 269 267 275 280 275 249 218 233 224 228 216 206 206 209 201 201 201 200 196 191 185 177 175 185 195 196 209 216 224 199 208 223 200 226 219
268 271 269 269 270 278 284 280 273 258 251 269 269 250 238 230 234 238 226 211 214 206 201 200 203 194 186 187 190 186 188 201 205 215 220 211 199 212 215 213 215 232 237
290 284 283 275 269 260 261 265 272 272 266 266 255 251 291 283 241 228 251 214 204 199 200 195 194 190 188 192 196 199 204 207 211 204 183 220 214 208 201 206 212 212 217
290 284 274 257 258 264 266 266 267 271 269 269 265 270 277 259 239 229 229 215 207 198 194 191 191 191 192 205 207 207 204 207 197 225 218 205 217 214 215 192 234 230 240